Weather History for Kahului, HI

Change the Weather History Date:

Tuesday, November 13, 2012

  Actual Average Record
Temperature  
Mean Temperature 77 °F 76 °F  
Max Temperature 82 °F 84 °F 92 °F (1968)
Min Temperature 72 °F 68 °F 59 °F (1967)
Degree Days  
Heating Degree Days 0 0  
Month to date heating degree days 0 0  
Since 1 July heating degree days 0 0  
Cooling Degree Days 12 11  
Month to date cooling degree days 143 153  
Year to date cooling degree days 3485 3529  
Growing Degree Days 27 (Base 50)    
Moisture  
Dew Point 65 °F    
Average Humidity 76    
Maximum Humidity 100    
Minimum Humidity 51    
Precipitation  
Precipitation 0.00 in 0.07 in 2.61 in (1996)
Month to date precipitation 0.08 0.79  
Year to date precipitation 4.79 13.07  
Snow  
Snow 0.00 in - - ()
Month to date snowfall 0.0  
Since 1 July snowfall 0.0  
Since 1 September snowfall 0.0  
Snow Depth 0.00 in    
Sea Level Pressure  
Sea Level Pressure 30.11 in    
Wind  
Wind Speed 11 mph (NE)    
Max Wind Speed 23 mph    
Max Gust Speed 28 mph    
Visibility 10 miles    
Events Rain    
T = Trace of Precipitation, MM = Missing Value Source: NWS Daily Summary

Daily Weather History Graph

Daily Weather History Graph

Search for Another Location

Airport:

Trip Planner

Search our weather history database for the weather conditions in past years. The results will help you decide how hot, cold, wet, or windy it might be!

Date:

Astronomy

Nov. 13, 2012 Rise Set
Actual Time 6:35 AM HST 5:44 PM HST
Civil Twilight 6:11 AM HST 6:08 PM HST
Nautical Twilight 5:45 AM HST 6:34 PM HST
Astronomical Twilight 5:18 AM HST 7:01 PM HST
Moon 6:24 AM HST (11/13) 5:52 PM HST (11/13)
Length of Visible Light 11h 56m
Length of Day
11h 09m
Waning Crescent, 0% of the Moon is Illuminated
Nov 13
Waning Crescent
Nov 13
New
Nov 20
First Quarter
Nov 28
Full
Dec 6
Last Quarter

Hourly Weather History & Observations

Time (HST) Temp. Heat Index Dew Point Humidity Pressure Visibility Wind Dir Wind Speed Gust Speed Precip Events Conditions
12:54 AM 71.1 °F - 71.1 °F 100% 30.13 in 10.0 mi ENE 6.9 mph - 0.00 in Rain Light Rain
1:54 AM - - - N/A% 30.12 in 10.0 mi NE 4.6 mph - 0.00 in Rain Light Rain
2:54 AM - - - N/A% 30.10 in 10.0 mi NE 6.9 mph - 0.00 in Rain Light Rain
3:54 AM - - - N/A% 30.09 in 10.0 mi ENE 6.9 mph - 0.00 in   Clear
4:54 AM - - - N/A% 30.09 in 10.0 mi NE 9.2 mph - 0.00 in   Mostly Cloudy
5:54 AM - - - N/A% 30.10 in 10.0 mi NE 9.2 mph - N/A   Clear
6:54 AM 71.6 °F - 66.2 °F 83% 30.12 in 10.0 mi NNE 6.9 mph - N/A   Clear
7:54 AM 73.4 °F - 68.0 °F 83% 30.14 in 10.0 mi NE 8.1 mph - 0.00 in   Scattered Clouds
8:54 AM 77.0 °F - 66.2 °F 69% 30.14 in 10.0 mi NE 15.0 mph - N/A   Scattered Clouds
9:54 AM 79.0 °F - 63.0 °F 58% 30.14 in 10.0 mi ENE 16.1 mph 23.0 mph N/A   Partly Cloudy
10:54 AM 81.0 °F 81.9 °F 62.1 °F 52% 30.12 in 10.0 mi NE 20.7 mph 27.6 mph N/A   Scattered Clouds
10:55 AM 81.0 °F 81.9 °F 62.1 °F 52% 30.12 in 10.0 mi NE 20.7 mph 27.6 mph N/A   Scattered Clouds
11:54 AM 82.0 °F 83.1 °F 63.0 °F 52% 30.11 in 10.0 mi NE 15.0 mph 26.5 mph N/A   Partly Cloudy
12:54 PM 82.9 °F 84.0 °F 63.0 °F 51% 30.09 in 10.0 mi NE 17.3 mph - N/A   Partly Cloudy
1:54 PM 82.9 °F 84.6 °F 64.9 °F 54% 30.07 in 10.0 mi NE 23.0 mph 26.5 mph N/A   Scattered Clouds
2:54 PM 81.0 °F 82.2 °F 63.0 °F 54% 30.06 in 10.0 mi NE 20.7 mph 25.3 mph N/A   Scattered Clouds
3:54 PM 80.1 °F 81.7 °F 64.0 °F 58% 30.06 in 10.0 mi NE 18.4 mph 26.5 mph N/A   Scattered Clouds
4:54 PM 78.1 °F - 64.9 °F 64% 30.08 in 10.0 mi ENE 15.0 mph 20.7 mph N/A   Scattered Clouds
5:54 PM 75.0 °F - 64.9 °F 71% 30.10 in 10.0 mi NE 10.4 mph - N/A   Partly Cloudy
6:54 PM 73.9 °F - 66.0 °F 76% 30.12 in 10.0 mi NE 6.9 mph - 0.00 in Rain Light Rain
7:54 PM 73.0 °F - 66.9 °F 81% 30.13 in 10.0 mi NE 6.9 mph - 0.00 in   Scattered Clouds
8:54 PM 73.0 °F - 64.9 °F 76% 30.14 in 10.0 mi ENE 6.9 mph - 0.00 in   Partly Cloudy
9:54 PM 73.0 °F - 66.0 °F 79% 30.14 in 10.0 mi NE 8.1 mph - 0.00 in   Scattered Clouds
10:54 PM 73.0 °F - 66.0 °F 79% 30.15 in 10.0 mi ENE 5.8 mph - 0.00 in   Partly Cloudy
11:54 PM 72.0 °F - 66.9 °F 84% 30.14 in 10.0 mi ENE 10.4 mph - 0.00 in Rain Light Rain